Sister Bay, Wisconsin, United States (54234)
Lat: 45.19N, Lon: 87.12W
Wx Zone: WIZ022
Local Info
Past Weather Observations for Thursday, April 17, 2014

NOTE: This archive is for the closest National Weather Service station to Sister Bay. Information may differ from the station used for current weather conditions.

Time Weather Temperature Dewpoint Humidity Pressure Winds Precip Visibility
23:55
Overcast
32°F / 0°C 25°F / -4°C 75% 30.27 in
(1025 mb)
NNW 9.2 mph
(NNW 15 kph)
- 10SM
23:35
Overcast
32°F / 0°C 27°F / -3°C 80% 30.27 in
(1025 mb)
NNW 6.9 mph
(NNW 11 kph)
- 10SM
23:15
Overcast
32°F / 0°C 27°F / -3°C 80% 30.27 in
(1025 mb)
NW 4.6 mph
(NW 7 kph)
- 10SM
22:55
Overcast
32°F / 0°C 27°F / -3°C 80% 30.27 in
(1025 mb)
NNW 6.9 mph
(NNW 11 kph)
- 10SM
22:35
Overcast
32°F / 0°C 27°F / -3°C 80% 30.27 in
(1025 mb)
NW 4.6 mph
(NW 7 kph)
- 10SM
22:15
Overcast
32°F / 0°C 27°F / -3°C 80% 30.27 in
(1025 mb)
NNW 8.1 mph
(NNW 13 kph)
- 10SM
21:55
Overcast
32°F / 0°C 28°F / -2°C 87% 30.27 in
(1025 mb)
NW 9.2 mph
(NW 15 kph)
- 10SM
21:35
Overcast
32°F / 0°C 27°F / -3°C 80% 30.27 in
(1025 mb)
NW 6.9 mph
(NW 11 kph)
- 10SM
21:15
Overcast
32°F / 0°C 28°F / -2°C 87% 30.27 in
(1025 mb)
NNW 8.1 mph
(NNW 13 kph)
- 10SM
20:55
Overcast
34°F / 1°C 28°F / -2°C 81% 30.27 in
(1025 mb)
NW 6.9 mph
(NW 11 kph)
- 10SM
20:35
Overcast
34°F / 1°C 28°F / -2°C 81% 30.27 in
(1025 mb)
NW 6.9 mph
(NW 11 kph)
- 10SM
20:15
Overcast
34°F / 1°C 28°F / -2°C 81% 30.27 in
(1025 mb)
NW 9.2 mph
(NW 15 kph)
- 10SM
19:55
Overcast
34°F / 1°C 28°F / -2°C 81% 30.27 in
(1025 mb)
WNW 8.1 mph
(WNW 13 kph)
- 10SM
19:35
Overcast
34°F / 1°C 28°F / -2°C 81% 30.24 in
(1024 mb)
NW 9.2 mph
(NW 15 kph)
- 10SM
19:15
Overcast
34°F / 1°C 28°F / -2°C 81% 30.24 in
(1024 mb)
WNW 8.1 mph
(WNW 13 kph)
- 10SM
18:55
Overcast
34°F / 1°C 30°F / -1°C 87% 30.24 in
(1024 mb)
NW 5.8 mph
(NW 9 kph)
- 10SM
18:35
Overcast
34°F / 1°C 30°F / -1°C 87% 30.24 in
(1024 mb)
NW 6.9 mph
(NW 11 kph)
- 10SM
18:15
Overcast
36°F / 2°C 30°F / -1°C 81% 30.21 in
(1023 mb)
NW 6.9 mph
(NW 11 kph)
- 10SM
17:55
Overcast
36°F / 2°C 32°F / 0°C 87% 30.21 in
(1023 mb)
NW 6.9 mph
(NW 11 kph)
- 10SM
17:35
Overcast
36°F / 2°C 32°F / 0°C 87% 30.21 in
(1023 mb)
NW 9.2 mph
(NW 15 kph)
- 10SM
17:15
Overcast
36°F / 2°C 32°F / 0°C 87% 30.21 in
(1023 mb)
NW 6.9 mph
(NW 11 kph)
- 10SM
16:55
Overcast
36°F / 2°C 32°F / 0°C 87% 30.21 in
(1023 mb)
WNW 8.1 mph
(WNW 13 kph)
- 10SM
16:35
Overcast
37°F / 3°C 32°F / 0°C 81% 30.21 in
(1023 mb)
NW 10.4 mph
(NW 17 kph)
- 10SM
16:15
Overcast
37°F / 3°C 32°F / 0°C 81% 30.21 in
(1023 mb)
W 9.2 mph
(W 15 kph)
- 10SM
15:55
Overcast
37°F / 3°C 32°F / 0°C 81% 30.18 in
(1022 mb)
NW 6.9 mph
(NW 11 kph)
- 10SM
15:35
Overcast
37°F / 3°C 32°F / 0°C 81% 30.18 in
(1022 mb)
W 6.9 mph
(W 11 kph)
- 10SM
15:15
Overcast
37°F / 3°C 32°F / 0°C 81% 30.18 in
(1022 mb)
W 8.1 mph
(W 13 kph)
- 10SM
14:55
Overcast
37°F / 3°C 32°F / 0°C 81% 30.18 in
(1022 mb)
W 9.2 mph
(W 15 kph)
- 10SM
14:35
Overcast
37°F / 3°C 32°F / 0°C 81% 30.18 in
(1022 mb)
SSW 8.1 mph
(SSW 13 kph)
- 10SM
14:15
Overcast
37°F / 3°C 32°F / 0°C 81% 30.18 in
(1022 mb)
W 6.9 mph
(W 11 kph)
- 10SM
13:55
Overcast
37°F / 3°C 32°F / 0°C 81% 30.18 in
(1022 mb)
W 5.8 mph
(W 9 kph)
- 10SM
13:35
Overcast
37°F / 3°C 32°F / 0°C 81% 30.15 in
(1021 mb)
W 8.1 mph
(W 13 kph)
- 10SM
13:15
Overcast
37°F / 3°C 32°F / 0°C 81% 30.15 in
(1021 mb)
W 8.1 mph
(W 13 kph)
- 10SM
12:55
Overcast
37°F / 3°C 32°F / 0°C 81% 30.15 in
(1021 mb)
W 8.1 mph
(W 13 kph)
- 10SM
12:35
Overcast
39°F / 4°C 32°F / 0°C 75% 30.15 in
(1021 mb)
W 8.1 mph
(W 13 kph)
- 10SM
12:15
Overcast
39°F / 4°C 32°F / 0°C 75% 30.12 in
(1020 mb)
WNW 8.1 mph
(WNW 13 kph)
- 10SM
11:55
Overcast
39°F / 4°C 32°F / 0°C 75% 30.12 in
(1020 mb)
NNW 3.5 mph
(NNW 6 kph)
- 7SM
11:35
Overcast
39°F / 4°C 32°F / 0°C 75% 30.12 in
(1020 mb)
W 4.6 mph
(W 7 kph)
- 10SM
11:15
Overcast
37°F / 3°C 32°F / 0°C 81% 30.12 in
(1020 mb)
Calm - 7SM
10:55
Overcast
37°F / 3°C 32°F / 0°C 81% 30.12 in
(1020 mb)
Calm - 7SM
10:35
Overcast
36°F / 2°C 32°F / 0°C 87% 30.12 in
(1020 mb)
Calm - 7SM
10:15
Overcast
34°F / 1°C 32°F / 0°C 93% 30.09 in
(1019 mb)
SE 4.6 mph
(SE 7 kph)
- 7SM
09:55
Overcast
34°F / 1°C 32°F / 0°C 93% 30.09 in
(1019 mb)
SSE 5.8 mph
(SSE 9 kph)
- 7SM
09:35
Overcast
Fog And Mist
34°F / 1°C 32°F / 0°C 93% 30.09 in
(1019 mb)
SE 9.2 mph
(SE 15 kph)
- 5SM
09:15
Overcast
34°F / 1°C 32°F / 0°C 93% 30.09 in
(1019 mb)
SE 9.2 mph
(SE 15 kph)
- 7SM
08:55
Overcast
Fog And Mist
34°F / 1°C 32°F / 0°C 93% 30.06 in
(1018 mb)
SE 12.7 mph
(SE 20 kph)
- 5SM
08:35
Overcast
Light Snow
32°F / 0°C 32°F / 0°C 100% 30.06 in
(1018 mb)
SE 12.7 mph
(SE 20 kph)
- 2 1/2SM
08:15
Overcast
Light Snow
32°F / 0°C 30°F / -1°C 93% 30.06 in
(1018 mb)
SE 13.8 mph
(SE 22 kph)
- 1SM
07:55
Overcast
Light Snow
32°F / 0°C 30°F / -1°C 93% 30.06 in
(1018 mb)
SE 12.7 mph
(SE 20 kph)
- 3SM
07:35
Overcast
Light Snow
32°F / 0°C 30°F / -1°C 93% 30.06 in
(1018 mb)
SE 11.5 mph
(SE 19 kph)
- 1SM
07:15
Overcast
Snow
32°F / 0°C 30°F / -1°C 93% 30.06 in
(1018 mb)
SE 11.5 mph
(SE 19 kph)
- 3/4SM
06:55
Overcast
Snow
32°F / 0°C 30°F / -1°C 93% 30.06 in
(1018 mb)
SE 11.5 mph
(SE 19 kph)
0.02 in
(0.51 mm)
1/2SM
06:35
Overcast
Snow
32°F / 0°C 32°F / 0°C 100% 30.06 in
(1018 mb)
SE 13.8 mph
(SE 22 kph)
0.02 in
(0.51 mm)
1/2SM
06:15
Overcast
Snow
32°F / 0°C 30°F / -1°C 93% 30.06 in
(1018 mb)
ESE 12.7 mph
(ESE 20 kph)
0.01 in
(0.25 mm)
1/4SM
05:55
Overcast
Light Snow
32°F / 0°C 30°F / -1°C 93% 30.06 in
(1018 mb)
ESE 12.7 mph
(ESE 20 kph)
- 3/4SM
05:35
Overcast
Light Snow
32°F / 0°C 32°F / 0°C 100% 30.06 in
(1018 mb)
ESE 13.8 mph
(ESE 22 kph)
- 2SM
05:15
Overcast
Light Snow
32°F / 0°C 32°F / 0°C 100% 30.04 in
(1017 mb)
SE 13.8 mph
(SE 22 kph)
- 2SM
04:55
Overcast
Fog And Mist
32°F / 0°C 32°F / 0°C 100% 30.04 in
(1017 mb)
SE 15 mph
(SE 24 kph)
- 4SM
04:35
Overcast
Fog And Mist
32°F / 0°C 32°F / 0°C 100% 30.04 in
(1017 mb)
SE 18.4 mph
(SE 30 kph)
- 5SM
04:15
Overcast
Fog And Mist
32°F / 0°C 32°F / 0°C 100% 30.04 in
(1017 mb)
SE 19.6 mph
(SE 32 kph)
- 5SM
03:55
Overcast
Fog And Mist
32°F / 0°C 32°F / 0°C 100% 30.04 in
(1017 mb)
SE 20.7 mph
(SE 33 kph)
- 4SM
03:35
Overcast
Light Snow
32°F / 0°C 30°F / -1°C 93% 30.04 in
(1017 mb)
SSE 17.3 mph
(SSE 28 kph)
- 2 1/2SM
03:15
Overcast
Light Snow
30°F / -1°C 30°F / -1°C 100% 30.04 in
(1017 mb)
SE 21.9 mph
(SE 35 kph)
- 2SM
02:55
Overcast
Light Snow
30°F / -1°C 30°F / -1°C 100% 30.04 in
(1017 mb)
ESE 24.2 mph
(ESE 39 kph)
- 1 1/2SM
02:35
Overcast
Light Snow
30°F / -1°C 30°F / -1°C 100% 30.04 in
(1017 mb)
ESE 19.6 mph
(ESE 32 kph)
- 2 1/2SM
02:15
Overcast
Snow
30°F / -1°C 30°F / -1°C 100% 30.06 in
(1018 mb)
ESE 17.3 mph
(ESE 28 kph)
- 3/4SM
01:55
Overcast
Light Snow
30°F / -1°C 28°F / -2°C 93% 30.06 in
(1018 mb)
SE 18.4 mph
(SE 30 kph)
- 3SM
01:35
Overcast
Fog And Mist
30°F / -1°C 28°F / -2°C 93% 30.06 in
(1018 mb)
SE 16.1 mph
(SE 26 kph)
- 5SM
01:15
Overcast
Fog And Mist
30°F / -1°C 28°F / -2°C 93% 30.06 in
(1018 mb)
SE 19.6 mph
(SE 32 kph)
- 5SM
00:55
Overcast
Fog And Mist
32°F / 0°C 28°F / -2°C 87% 30.09 in
(1019 mb)
SE 23 mph
(SE 37 kph)
- 5SM
00:35
Overcast
Hazy
32°F / 0°C 28°F / -2°C 87% 30.09 in
(1019 mb)
SE 26.5 mph
(SE 43 kph)
- 4SM
00:15
Overcast
Light Snow
32°F / 0°C 27°F / -3°C 80% 30.09 in
(1019 mb)
SE 21.9 mph
(SE 35 kph)
- 5SM
Time Weather Temperature Dewpoint Humidity Pressure Winds Precip Visibility


Weather for websites

WeatherForYou.com, LLC is not responsible for any damages or problems caused by this service. Current weather conditions are obtained from the closest station including government and personal stations which may have varying degrees of accuracy. Weather forecasts are derived from the NOAA NDFD. Like all things, this site belongs to Jesus Christ... He just trusts me to maintain it. If you have any questions or comments email webmaster@weatherforyou.com

Copyright © 2014, WeatherForYou.com LLC. All rights reserved.